Weather History for Denver, CO

Change the Weather History Date:

Thursday, March 28, 2013

  Actual Average Record
Temperature  
Mean Temperature 47 °F 43 °F  
Max Temperature 62 °F 58 °F 83 °F (1963)
Min Temperature 32 °F 29 °F -11 °F (1886)
Degree Days  
Heating Degree Days 18 22  
Month to date heating degree days 798 699  
Since 1 July heating degree days 5070 5138  
Cooling Degree Days 0 0  
Month to date cooling degree days 0 0  
Year to date cooling degree days 0 0  
Moisture  
Dew Point 30 °F    
Average Humidity 56    
Maximum Humidity 82    
Minimum Humidity 29    
Precipitation  
Precipitation 0.00 in 0.04 in 1.11 in (1992)
Month to date precipitation 1.47 0.80  
Year to date precipitation 2.55 1.58  
Snow  
Snow 0.00 in - - ()
Month to date snowfall 23.5  
Since 1 July snowfall 54.6  
Snow Depth T in    
Sea Level Pressure  
Sea Level Pressure 30.03 in    
Wind  
Wind Speed 8 mph (South)    
Max Wind Speed 17 mph    
Max Gust Speed 25 mph    
Visibility 8 miles    
Events      
T = Trace of Precipitation, MM = Missing Value Source: NWS Daily Summary

Daily Weather History Graph

Daily Weather History Graph

Search for Another Location

Airport:

Trip Planner

Search our weather history database for the weather conditions in past years. The results will help you decide how hot, cold, wet, or windy it might be!

Date:

Astronomy

Mar. 28, 2013 Rise Set
Actual Time 6:48 AM MDT 7:19 PM MDT
Civil Twilight 6:21 AM MDT 7:46 PM MDT
Nautical Twilight 5:49 AM MDT 8:18 PM MDT
Astronomical Twilight 5:16 AM MDT 8:51 PM MDT
Moon 9:13 PM MDT (3/28) 7:18 AM MDT (3/28)
Length of Visible Light 13h 24m
Length of Day
12h 30m
Full, 98% of the Moon is Illuminated
Mar 28
Full
Apr 2
Last Quarter
Apr 10
New
Apr 18
First Quarter
Apr 25
Full

Hourly Weather History & Observations

Time (MDT) Temp. Windchill Dew Point Humidity Pressure Visibility Wind Dir Wind Speed Gust Speed Precip Events Conditions
12:53 AM 39.9 °F 35.1 °F 27.0 °F 60% 30.03 in 10.0 mi SSW 6.9 mph - N/A   Scattered Clouds
1:53 AM 37.9 °F 34.4 °F 27.0 °F 65% 30.02 in 10.0 mi SSW 4.6 mph - N/A   Scattered Clouds
2:53 AM 35.1 °F 30.1 °F 27.0 °F 72% 30.01 in 10.0 mi WSW 5.8 mph - N/A   Scattered Clouds
3:53 AM 35.1 °F 30.1 °F 30.0 °F 82% 30.00 in 4.0 mi WNW 5.8 mph - N/A   Haze
4:53 AM 34.0 °F 28.8 °F 28.9 °F 82% 30.01 in 3.0 mi West 5.8 mph - N/A   Haze
5:53 AM 33.1 °F 28.7 °F 28.9 °F 85% 30.02 in 5.0 mi West 4.6 mph - N/A   Mostly Cloudy
6:53 AM 34.0 °F 28.8 °F 28.9 °F 82% 30.04 in 3.0 mi West 5.8 mph - N/A   Haze
7:53 AM 35.1 °F 30.1 °F 30.0 °F 82% 30.08 in 4.0 mi WSW 5.8 mph - N/A   Haze
8:53 AM 37.9 °F 33.5 °F 32.0 °F 79% 30.08 in 4.0 mi WSW 5.8 mph - N/A   Haze
9:53 AM 43.0 °F 39.5 °F 34.0 °F 71% 30.07 in 5.0 mi WSW 5.8 mph - N/A   Haze
10:53 AM 50.0 °F - 32.0 °F 50% 30.06 in 5.0 mi WSW 4.6 mph - N/A   Haze
11:53 AM 55.0 °F - 32.0 °F 42% 30.03 in 6.0 mi Calm Calm - N/A   Haze
12:53 PM 57.9 °F - 28.9 °F 33% 29.99 in 10.0 mi ENE 8.1 mph - N/A   Mostly Cloudy
1:53 PM 60.1 °F - 28.0 °F 30% 29.99 in 10.0 mi East 10.4 mph - N/A   Mostly Cloudy
2:53 PM 61.0 °F - 28.9 °F 30% 29.98 in 10.0 mi East 10.4 mph 17.3 mph N/A   Mostly Cloudy
3:53 PM 61.0 °F - 28.0 °F 29% 29.97 in 10.0 mi East 11.5 mph - N/A   Mostly Cloudy
4:53 PM 60.1 °F - 28.0 °F 30% 29.98 in 10.0 mi ESE 10.4 mph - N/A   Mostly Cloudy
5:53 PM 60.1 °F - 30.0 °F 32% 29.99 in 10.0 mi ESE 12.7 mph - N/A   Mostly Cloudy
6:53 PM 54.0 °F - 34.0 °F 47% 30.03 in 10.0 mi SE 9.2 mph - N/A   Mostly Cloudy
7:53 PM 48.9 °F - 35.1 °F 59% 30.05 in 10.0 mi ESE 9.2 mph - N/A   Mostly Cloudy
8:53 PM 44.1 °F 40.8 °F 33.1 °F 65% 30.07 in 10.0 mi SSE 5.8 mph - N/A   Mostly Cloudy
9:53 PM 44.1 °F 38.6 °F 32.0 °F 63% 30.06 in 10.0 mi SSE 10.4 mph - N/A   Mostly Cloudy
10:53 PM 45.0 °F 38.9 °F 32.0 °F 60% 30.03 in 10.0 mi South 12.7 mph - N/A   Mostly Cloudy
11:53 PM 45.0 °F 39.7 °F 30.0 °F 56% 30.02 in 10.0 mi SSW 10.4 mph - N/A   Mostly Cloudy